Lid_Strength_Index
0 1 1 1 1 1 1 1 1 0 0 0 0 1 1 1 1 2 5 2 1 -1 -0 5 5 6 7 8 7 9 13 14 14 13 13 11 11 10 10 12 11 10 10 7 6
1 1 1 1 1 2 2 1 1 1 1 0 0 1 1 1 4 5 1 -0 -0 -1 5 7 7 7 9 9 8 10 12 12 11 12 12 11 11 11 11 12 11 11 9 8 7
2 2 2 2 2 2 2 2 2 2 1 1 1 1 1 2 6 6 1 -0 -0 1 4 5 6 7 10 9 9 10 11 10 9 9 9 10 11 9 11 12 11 11 10 8 8
2 2 2 2 2 2 2 3 3 2 1 1 1 1 1 4 15 4 0 0 -0 1 4 6 7 10 11 11 9 12 9 9 8 8 9 10 9 10 10 10 8 8 8 8 8
2 2 3 3 3 3 3 3 3 2 2 2 1 2 4 10 8 3 1 2 3 3 5 6 8 9 10 10 9 11 9 8 8 8 8 8 10 10 10 8 8 8 7 8 9
2 2 3 3 3 3 3 3 2 2 2 2 2 2 7 13 4 4 4 4 4 4 5 6 7 7 9 10 10 9 9 8 8 8 8 10 10 10 9 8 8 8 9 9 8
3 3 3 3 4 3 3 3 2 2 2 2 3 4 8 11 4 4 4 5 4 4 5 5 5 7 8 10 8 8 11 10 9 8 9 9 12 11 10 8 8 9 9 8 7
3 3 3 4 4 4 3 3 3 2 2 3 3 6 11 4 5 5 4 5 4 3 4 4 5 6 8 8 9 11 11 14 10 9 9 11 15 9 9 9 10 9 9 8 7
3 3 3 4 4 4 3 3 2 2 3 3 7 8 12 4 7 5 5 6 5 4 4 4 5 8 8 11 13 12 17 14 12 9 9 11 13 10 9 9 10 10 9 8 8
3 3 4 4 4 3 3 3 3 4 5 4 6 12 9 9 7 6 5 5 6 6 6 7 9 11 11 13 17 15 15 14 13 10 11 12 12 11 10 10 11 11 10 9 8
4 4 4 4 4 3 4 8 11 13 10 12 12 11 10 8 7 7 6 7 7 9 12 10 14 16 13 11 12 12 14 15 13 10 12 13 13 12 11 11 11 11 11 9 8
4 5 5 4 4 3 7 10 10 10 13 10 10 10 9 8 11 8 6 10 11 13 11 13 15 12 10 10 11 12 14 15 12 11 13 13 13 11 11 11 11 11 11 9 8
5 5 5 5 4 6 8 8 6 8 14 12 11 10 10 9 11 10 8 9 12 14 13 15 13 9 10 12 12 14 15 15 15 12 12 14 15 13 11 11 11 10 10 8 8
5 5 5 5 7 8 9 6 6 8 20 18 13 10 9 9 12 7 7 10 12 14 12 13 11 11 12 12 12 16 12 12 12 16 19 16 21 17 14 12 12 11 11 10 10
5 6 5 5 10 9 8 6 7 12 25 16 12 7 8 11 11 10 7 9 14 13 13 15 13 13 13 12 10 13 10 11 13 17 20 19 21 18 14 14 13 13 12 11 10
6 6 6 7 9 8 7 7 10 20 26 19 12 12 12 11 11 10 10 9 9 12 12 13 10 11 12 10 10 10 12 13 15 18 24 19 19 20 16 14 13 12 11 10 10
6 6 6 7 10 7 8 11 20 24 16 17 15 13 14 14 12 12 12 14 15 19 17 14 13 11 10 12 10 12 15 22 22 24 22 17 18 18 14 13 12 12 11 10 10
6 6 7 7 7 8 10 17 24 19 18 14 14 14 16 13 14 13 14 15 13 15 18 19 21 13 11 12 14 14 15 19 25 23 21 16 18 16 13 12 11 10 10 10 10
6 8 8 7 7 8 14 23 21 19 15 15 15 17 17 14 15 14 15 14 14 13 17 18 17 11 11 10 11 14 16 13 17 19 22 19 17 14 13 12 12 11 10 10 9
9 9 10 8 7 10 16 18 17 14 14 14 18 17 19 17 17 16 16 14 13 11 12 14 17 13 12 11 11 13 12 17 16 23 23 21 19 18 15 13 12 11 11 10 10
9 12 10 7 9 14 20 18 15 12 12 15 16 17 17 17 17 17 16 13 12 12 11 13 15 15 12 13 15 14 15 15 16 18 25 24 19 14 13 13 12 11 10 11 11
10 15 9 9 16 17 19 15 12 13 12 13 14 14 16 16 17 16 15 13 11 11 13 12 14 17 15 12 12 13 14 14 18 20 20 21 19 12 11 11 11 11 10 10 10
12 13 9 11 19 19 16 14 14 14 14 14 14 13 13 15 17 15 14 11 10 10 12 12 15 19 17 15 14 15 13 13 14 15 18 22 18 11 10 11 10 11 11 10 10
12 16 13 12 14 17 17 16 16 13 14 14 14 13 14 16 13 15 14 10 10 10 7 9 13 15 19 17 14 15 14 12 13 18 17 16 14 13 11 12 12 11 11 11 11
12 16 13 16 15 16 16 16 16 16 13 13 15 14 14 17 15 15 13 12 10 9 11 11 15 15 13 13 13 14 14 13 14 14 16 15 14 11 11 11 11 11 10 11 11
14 15 14 15 14 15 15 17 16 15 14 15 16 14 14 15 14 14 14 12 12 12 13 11 14 14 16 13 13 14 13 13 12 12 13 13 13 9 10 11 11 11 11 12 12
11 11 13 15 15 16 16 16 15 14 14 14 14 15 15 14 11 11 12 12 13 13 14 13 14 15 19 15 15 17 14 13 12 11 11 14 11 10 12 11 12 12 11 12 12